Time,TemperatureF,DewpointF,PressureIn,WindDirection,WindDirectionDegrees,WindSpeedMPH,WindSpeedGustMPH,Humidity,HourlyPrecipIn,Conditions,Clouds,dailyrainin,SoftwareType,DateUTC
2013-02-14 00:00:00,31.1,27.4,30.00,NW,314,1.1,1.1,86,0.00,FEW,,0.04,WeatherDisplay:10.37,2013-02-14 05:00:00,
2013-02-14 00:01:00,31.1,27.4,30.00,NW,314,1.1,0.0,86,0.00,RA,,0.00,WeatherDisplay:10.37,2013-02-14 05:01:00,
2013-02-14 00:06:00,31.0,27.3,30.00,NW,313,4.0,4.0,86,0.00,RA,,0.00,WeatherDisplay:10.37,2013-02-14 05:06:00,
2013-02-14 00:11:00,31.0,27.3,30.00,NW,313,2.3,2.3,86,0.00,FEW,,0.00,WeatherDisplay:10.37,2013-02-14 05:11:00,
2013-02-14 00:16:00,31.0,27.3,30.00,NW,313,2.3,0.0,86,0.00,FEW,,0.00,WeatherDisplay:10.37,2013-02-14 05:16:00,
2013-02-14 00:21:00,31.1,27.4,30.00,NW,312,2.3,2.3,86,0.00,FEW,,0.00,WeatherDisplay:10.37,2013-02-14 05:21:00,
2013-02-14 00:26:00,31.2,27.5,30.00,NW,309,4.0,4.0,86,0.00,FEW,,0.00,WeatherDisplay:10.37,2013-02-14 05:26:00,
2013-02-14 00:31:00,31.3,27.6,30.00,NW,307,4.0,4.0,86,0.00,FEW,,0.00,WeatherDisplay:10.37,2013-02-14 05:31:00,
2013-02-14 00:36:00,31.3,27.6,30.00,WNW,301,4.0,4.0,86,0.00,FEW,,0.00,WeatherDisplay:10.37,2013-02-14 05:36:00,
2013-02-14 00:41:00,31.4,27.7,30.01,WNW,299,5.0,5.0,86,0.00,FEW,,0.00,WeatherDisplay:10.37,2013-02-14 05:41:00,
2013-02-14 00:46:00,31.5,27.8,30.01,WNW,299,3.5,3.5,86,0.00,FEW,,0.00,WeatherDisplay:10.37,2013-02-14 05:46:00,
2013-02-14 00:51:00,31.5,27.8,30.01,WNW,299,3.5,3.5,86,0.00,FEW,,0.00,WeatherDisplay:10.37,2013-02-14 05:51:00,
2013-02-14 00:56:00,31.7,28.0,30.01,West,274,5.0,5.0,86,0.00,FEW,,0.00,WeatherDisplay:10.37,2013-02-14 05:56:00,
2013-02-14 00:57:00,31.8,28.1,30.01,West,274,5.0,5.0,86,0.00,FEW,,0.00,WeatherDisplay:10.37,2013-02-14 05:57:00,
2013-02-14 01:02:00,31.9,28.2,30.01,West,266,6.0,6.0,86,0.00,CLR,,0.00,WeatherDisplay:10.37,2013-02-14 06:02:00,
2013-02-14 01:07:00,32.0,28.3,30.01,West,264,4.0,4.0,86,0.00,CLR,,0.00,WeatherDisplay:10.37,2013-02-14 06:07:00,
2013-02-14 01:12:00,32.1,28.4,30.01,West,264,4.0,4.0,86,0.00,CLR,,0.00,WeatherDisplay:10.37,2013-02-14 06:12:00,
2013-02-14 01:17:00,32.1,28.4,30.01,West,264,4.0,4.0,86,0.00,CLR,,0.00,WeatherDisplay:10.37,2013-02-14 06:17:00,
2013-02-14 01:22:00,32.2,28.5,30.00,West,263,4.0,4.0,86,0.00,CLR,,0.00,WeatherDisplay:10.37,2013-02-14 06:22:00,
2013-02-14 01:27:00,32.2,28.5,30.01,West,262,5.0,5.0,86,0.00,CLR,,0.00,WeatherDisplay:10.37,2013-02-14 06:27:00,
2013-02-14 01:32:00,32.1,28.4,30.01,WSW,254,7.0,7.0,86,0.00,CLR,,0.00,WeatherDisplay:10.37,2013-02-14 06:32:00,
2013-02-14 01:37:00,32.1,28.4,30.01,WSW,252,4.0,4.0,86,0.00,CLR,,0.00,WeatherDisplay:10.37,2013-02-14 06:37:00,
2013-02-14 01:42:00,32.1,28.7,30.01,WSW,250,7.0,7.0,87,0.00,CLR,,0.00,WeatherDisplay:10.37,2013-02-14 06:42:00,
2013-02-14 01:47:00,32.1,28.7,30.01,WSW,240,3.5,3.5,87,0.00,CLR,,0.00,WeatherDisplay:10.37,2013-02-14 06:47:00,
2013-02-14 01:52:00,32.0,28.6,30.01,WSW,239,5.0,5.0,87,0.00,CLR,,0.00,WeatherDisplay:10.37,2013-02-14 06:52:00,
2013-02-14 01:57:00,32.0,28.6,30.01,WSW,239,4.0,4.0,87,0.00,CLR,,0.00,WeatherDisplay:10.37,2013-02-14 06:57:00,
2013-02-14 02:02:00,32.0,28.6,30.01,WSW,239,5.8,5.8,87,0.00,CLR,,0.00,WeatherDisplay:10.37,2013-02-14 07:02:00,
2013-02-14 02:07:00,32.0,28.6,30.01,WSW,239,4.0,4.0,87,0.00,CLR,,0.00,WeatherDisplay:10.37,2013-02-14 07:07:00,
2013-02-14 02:12:00,32.0,28.6,30.01,WSW,239,6.0,6.0,87,0.00,CLR,,0.00,WeatherDisplay:10.37,2013-02-14 07:12:00,
2013-02-14 02:17:00,32.0,28.6,30.01,WSW,237,3.5,3.5,87,0.00,CLR,,0.00,WeatherDisplay:10.37,2013-02-14 07:17:00,
2013-02-14 02:22:00,32.0,28.6,30.01,WSW,237,5.0,5.0,87,0.00,CLR,,0.00,WeatherDisplay:10.37,2013-02-14 07:22:00,
2013-02-14 02:27:00,32.0,28.6,30.00,WSW,237,5.0,5.0,87,0.00,CLR,,0.00,WeatherDisplay:10.37,2013-02-14 07:27:00,
2013-02-14 02:32:00,31.9,28.5,30.01,WSW,237,3.5,3.5,87,0.00,CLR,,0.00,WeatherDisplay:10.37,2013-02-14 07:32:00,
2013-02-14 02:37:00,31.9,28.2,30.00,SW,236,3.0,3.0,86,0.00,CLR,,0.00,WeatherDisplay:10.37,2013-02-14 07:37:00,
2013-02-14 02:42:00,31.8,28.1,30.01,SW,234,3.5,3.5,86,0.00,CLR,,0.00,WeatherDisplay:10.37,2013-02-14 07:42:00,
2013-02-14 02:47:00,31.7,28.0,30.01,SW,235,3.5,3.5,86,0.00,CLR,,0.00,WeatherDisplay:10.37,2013-02-14 07:47:00,
2013-02-14 02:52:00,31.6,27.9,30.00,SW,234,3.5,3.5,86,0.00,CLR,,0.00,WeatherDisplay:10.37,2013-02-14 07:52:00,
2013-02-14 02:57:00,31.6,27.9,30.01,SW,234,3.5,3.5,86,0.00,CLR,,0.00,WeatherDisplay:10.37,2013-02-14 07:57:00,
2013-02-14 03:02:00,31.7,28.0,30.00,SW,232,4.0,4.0,86,0.00,CLR,,0.00,WeatherDisplay:10.37,2013-02-14 08:02:00,
2013-02-14 03:07:00,31.7,28.0,30.01,SW,232,5.8,5.8,86,0.00,CLR,,0.00,WeatherDisplay:10.37,2013-02-14 08:07:00,
2013-02-14 03:12:00,31.6,27.9,30.00,SW,231,3.5,3.5,86,0.00,CLR,,0.00,WeatherDisplay:10.37,2013-02-14 08:12:00,
2013-02-14 03:17:00,31.7,28.0,30.00,SW,230,4.6,4.6,86,0.00,CLR,,0.00,WeatherDisplay:10.37,2013-02-14 08:17:00,
2013-02-14 03:22:00,31.7,28.0,30.01,SW,231,4.6,4.6,86,0.00,CLR,,0.00,WeatherDisplay:10.37,2013-02-14 08:22:00,
2013-02-14 03:27:00,31.7,28.0,30.01,SW,231,5.8,5.8,86,0.00,CLR,,0.00,WeatherDisplay:10.37,2013-02-14 08:27:00,
2013-02-14 03:32:00,31.7,28.0,30.00,SW,231,4.6,4.6,86,0.00,CLR,,0.00,WeatherDisplay:10.37,2013-02-14 08:32:00,
2013-02-14 03:37:00,31.7,28.0,30.00,SW,231,3.0,3.0,86,0.00,CLR,,0.00,WeatherDisplay:10.37,2013-02-14 08:37:00,
2013-02-14 03:42:00,31.7,28.0,30.00,SW,231,5.0,5.0,86,0.00,CLR,,0.00,WeatherDisplay:10.37,2013-02-14 08:42:00,
2013-02-14 03:47:00,31.7,28.0,30.00,SW,230,4.0,4.0,86,0.00,CLR,,0.00,WeatherDisplay:10.37,2013-02-14 08:47:00,
2013-02-14 03:52:00,31.6,27.9,30.00,SW,230,4.0,4.0,86,0.00,CLR,,0.00,WeatherDisplay:10.37,2013-02-14 08:52:00,
2013-02-14 03:57:00,31.5,27.8,30.00,SW,231,4.0,4.0,86,0.00,CLR,,0.00,WeatherDisplay:10.37,2013-02-14 08:57:00,
2013-02-14 04:02:00,31.4,27.7,30.00,SW,231,6.0,6.0,86,0.00,CLR,,0.00,WeatherDisplay:10.37,2013-02-14 09:02:00,
2013-02-14 04:07:00,31.4,27.7,30.00,SW,230,4.0,4.0,86,0.00,CLR,,0.00,WeatherDisplay:10.37,2013-02-14 09:07:00,
2013-02-14 04:12:00,31.3,27.6,30.00,SW,230,5.0,5.0,86,0.00,CLR,,0.00,WeatherDisplay:10.37,2013-02-14 09:12:00,
2013-02-14 04:17:00,31.4,27.7,30.00,SW,230,4.0,4.0,86,0.00,CLR,,0.00,WeatherDisplay:10.37,2013-02-14 09:17:00,
2013-02-14 04:22:00,31.4,27.7,30.00,SW,230,5.0,5.0,86,0.00,CLR,,0.00,WeatherDisplay:10.37,2013-02-14 09:22:00,
2013-02-14 04:27:00,31.4,27.7,30.00,SW,228,2.3,2.3,86,0.00,CLR,,0.00,WeatherDisplay:10.37,2013-02-14 09:27:00,
2013-02-14 04:32:00,31.3,27.6,30.00,SW,228,5.0,5.0,86,0.00,CLR,,0.00,WeatherDisplay:10.37,2013-02-14 09:32:00,
2013-02-14 04:37:00,31.3,27.6,30.00,SW,226,6.0,6.0,86,0.00,CLR,,0.00,WeatherDisplay:10.37,2013-02-14 09:37:00,
2013-02-14 04:42:00,31.2,27.5,30.00,SW,225,5.0,5.0,86,0.00,CLR,,0.00,WeatherDisplay:10.37,2013-02-14 09:42:00,
2013-02-14 04:47:00,31.2,27.5,30.00,SW,230,3.5,3.5,86,0.00,CLR,,0.00,WeatherDisplay:10.37,2013-02-14 09:47:00,
2013-02-14 04:52:00,31.2,27.5,30.00,SW,226,5.0,5.0,86,0.00,CLR,,0.00,WeatherDisplay:10.37,2013-02-14 09:52:00,
2013-02-14 04:57:00,31.2,27.5,30.00,SW,224,5.8,5.8,86,0.00,CLR,,0.00,WeatherDisplay:10.37,2013-02-14 09:57:00,
2013-02-14 05:02:00,31.2,27.5,30.00,SW,224,3.0,3.0,86,0.00,CLR,,0.00,WeatherDisplay:10.37,2013-02-14 10:02:00,
2013-02-14 05:07:00,31.2,27.5,30.00,SW,224,3.5,3.5,86,0.00,CLR,,0.00,WeatherDisplay:10.37,2013-02-14 10:07:00,
2013-02-14 05:12:00,31.2,27.5,30.00,SW,224,2.3,2.3,86,0.00,CLR,,0.00,WeatherDisplay:10.37,2013-02-14 10:12:00,
2013-02-14 05:17:00,31.2,27.5,30.00,SW,222,3.5,3.5,86,0.00,CLR,,0.00,WeatherDisplay:10.37,2013-02-14 10:17:00,
2013-02-14 05:22:00,31.1,27.4,30.00,SW,222,3.5,3.5,86,0.00,CLR,,0.00,WeatherDisplay:10.37,2013-02-14 10:22:00,
2013-02-14 05:27:00,31.1,27.4,30.00,SW,223,2.3,2.3,86,0.00,CLR,,0.00,WeatherDisplay:10.37,2013-02-14 10:27:00,
2013-02-14 05:32:00,31.0,27.3,30.00,SW,223,4.0,4.0,86,0.00,CLR,,0.00,WeatherDisplay:10.37,2013-02-14 10:32:00,
2013-02-14 05:37:00,31.1,27.4,30.00,SW,222,5.0,5.0,86,0.00,CLR,,0.00,WeatherDisplay:10.37,2013-02-14 10:37:00,
2013-02-14 05:42:00,31.1,27.7,30.00,SW,222,5.0,5.0,87,0.00,CLR,,0.00,WeatherDisplay:10.37,2013-02-14 10:42:00,
2013-02-14 05:47:00,31.2,27.8,30.00,SW,224,7.0,7.0,87,0.00,CLR,,0.00,WeatherDisplay:10.37,2013-02-14 10:47:00,
2013-02-14 05:52:00,31.2,27.8,30.00,SW,220,3.5,3.5,87,0.00,CLR,,0.00,WeatherDisplay:10.37,2013-02-14 10:52:00,
2013-02-14 05:57:00,31.4,28.0,30.00,South,184,9.2,9.2,87,0.00,CLR,,0.00,WeatherDisplay:10.37,2013-02-14 10:57:00,
2013-02-14 06:02:00,31.5,28.1,30.00,South,190,4.6,4.6,87,0.00,CLR,,0.00,WeatherDisplay:10.37,2013-02-14 11:02:00,
2013-02-14 06:07:00,31.6,28.2,30.00,SSW,197,3.5,3.5,87,0.00,CLR,,0.00,WeatherDisplay:10.37,2013-02-14 11:07:00,
2013-02-14 06:12:00,31.8,28.4,30.00,SSW,198,3.5,3.5,87,0.00,CLR,,0.00,WeatherDisplay:10.37,2013-02-14 11:12:00,
2013-02-14 06:17:00,31.9,28.5,30.01,SSW,198,5.0,5.0,87,0.00,CLR,,0.00,WeatherDisplay:10.37,2013-02-14 11:17:00,
2013-02-14 06:22:00,32.0,28.6,30.00,SSW,198,2.0,2.0,87,0.00,CLR,,0.00,WeatherDisplay:10.37,2013-02-14 11:22:00,
2013-02-14 06:27:00,32.1,28.7,30.00,SSW,199,5.0,5.0,87,0.00,CLR,,0.00,WeatherDisplay:10.37,2013-02-14 11:27:00,
2013-02-14 06:32:00,32.2,28.8,30.00,SSW,202,6.9,6.9,87,0.00,CLR,,0.00,WeatherDisplay:10.37,2013-02-14 11:32:00,
2013-02-14 06:37:00,32.4,29.0,30.00,SSW,203,3.0,3.0,87,0.00,CLR,,0.00,WeatherDisplay:10.37,2013-02-14 11:37:00,
2013-02-14 06:42:00,32.5,29.1,30.00,SSW,202,4.0,4.0,87,0.00,CLR,,0.00,WeatherDisplay:10.37,2013-02-14 11:42:00,
2013-02-14 06:47:00,32.5,29.1,30.00,SSW,203,4.0,4.0,87,0.00,CLR,,0.00,WeatherDisplay:10.37,2013-02-14 11:47:00,
2013-02-14 06:52:00,32.6,29.2,30.00,SSW,203,6.0,6.0,87,0.00,CLR,,0.00,WeatherDisplay:10.37,2013-02-14 11:52:00,
2013-02-14 06:57:00,32.6,29.2,30.00,SSW,204,3.5,3.5,87,0.00,CLR,,0.00,WeatherDisplay:10.37,2013-02-14 11:57:00,
2013-02-14 07:02:00,32.6,29.2,30.00,SSW,205,3.5,3.5,87,0.00,OVC,,0.00,WeatherDisplay:10.37,2013-02-14 12:02:00,
2013-02-14 07:07:00,32.7,29.3,30.00,SSW,201,3.5,3.5,87,0.00,OVC,,0.00,WeatherDisplay:10.37,2013-02-14 12:07:00,
2013-02-14 07:12:00,32.8,29.4,30.00,SSW,201,4.0,4.0,87,0.00,OVC,,0.00,WeatherDisplay:10.37,2013-02-14 12:12:00,
2013-02-14 07:17:00,32.9,29.5,30.00,SSW,203,5.0,5.0,87,0.00,OVC,,0.00,WeatherDisplay:10.37,2013-02-14 12:17:00,
2013-02-14 07:22:00,32.9,29.5,30.00,SSW,201,5.8,5.8,87,0.00,OVC,,0.00,WeatherDisplay:10.37,2013-02-14 12:22:00,
2013-02-14 07:27:00,32.9,29.2,30.00,SSW,201,1.1,0.0,86,0.00,OVC,,0.00,WeatherDisplay:10.37,2013-02-14 12:27:00,
2013-02-14 07:32:00,32.8,29.1,30.00,SSW,201,3.0,3.0,86,0.00,OVC,,0.00,WeatherDisplay:10.37,2013-02-14 12:32:00,
2013-02-14 07:37:00,32.9,29.2,30.00,SSW,201,2.3,2.3,86,0.00,OVC,,0.00,WeatherDisplay:10.37,2013-02-14 12:37:00,
2013-02-14 07:42:00,32.8,29.1,30.00,SSW,201,3.5,3.5,86,0.00,OVC,,0.00,WeatherDisplay:10.37,2013-02-14 12:42:00,
2013-02-14 07:47:00,32.9,29.2,30.00,SSW,201,4.0,4.0,86,0.00,OVC,,0.00,WeatherDisplay:10.37,2013-02-14 12:47:00,
2013-02-14 07:52:00,32.9,29.5,30.00,SSW,197,4.0,4.0,87,0.00,OVC,,0.00,WeatherDisplay:10.37,2013-02-14 12:52:00,
2013-02-14 07:57:00,33.0,29.6,30.00,SSW,209,6.0,6.0,87,0.00,OVC,,0.00,WeatherDisplay:10.37,2013-02-14 12:57:00,
2013-02-14 08:02:00,33.0,29.6,30.00,SSW,197,4.0,4.0,87,0.00,OVC,,0.00,WeatherDisplay:10.37,2013-02-14 13:02:00,
2013-02-14 08:07:00,33.0,29.3,30.00,SSW,205,4.6,4.6,86,0.00,OVC,,0.00,WeatherDisplay:10.37,2013-02-14 13:07:00,
2013-02-14 08:12:00,33.0,29.3,30.00,SSW,210,5.0,5.0,86,0.00,OVC,,0.00,WeatherDisplay:10.37,2013-02-14 13:12:00,
2013-02-14 08:17:00,33.1,29.4,30.01,SSW,212,5.0,5.0,86,0.00,OVC,,0.00,WeatherDisplay:10.37,2013-02-14 13:17:00,
2013-02-14 08:22:00,33.2,29.5,30.01,SW,214,6.0,6.0,86,0.00,OVC,,0.00,WeatherDisplay:10.37,2013-02-14 13:22:00,
2013-02-14 08:27:00,33.3,29.6,30.01,SW,216,4.6,4.6,86,0.00,OVC,,0.00,WeatherDisplay:10.37,2013-02-14 13:27:00,
2013-02-14 08:32:00,33.4,29.7,30.01,SSW,206,5.8,5.8,86,0.00,OVC,,0.01,WeatherDisplay:10.37,2013-02-14 13:32:00,
2013-02-14 08:37:00,33.5,29.8,30.01,SW,218,6.9,6.9,86,0.01,RA,,0.01,WeatherDisplay:10.37,2013-02-14 13:37:00,
2013-02-14 08:42:00,33.6,29.9,30.01,SW,228,7.0,7.0,86,0.01,OVC,,0.01,WeatherDisplay:10.37,2013-02-14 13:42:00,
2013-02-14 08:47:00,33.7,30.0,30.02,SW,216,5.0,5.0,86,0.01,OVC,,0.01,WeatherDisplay:10.37,2013-02-14 13:47:00,
2013-02-14 08:52:00,33.9,30.2,30.01,SW,228,9.2,9.2,86,0.01,OVC,,0.01,WeatherDisplay:10.37,2013-02-14 13:52:00,
2013-02-14 08:57:00,34.0,30.3,30.01,South,191,5.8,5.8,86,0.01,OVC,,0.01,WeatherDisplay:10.37,2013-02-14 13:57:00,
2013-02-14 09:02:00,34.1,30.4,30.02,SW,221,7.0,7.0,86,0.01,OVC,,0.01,WeatherDisplay:10.37,2013-02-14 14:02:00,
2013-02-14 09:07:00,34.3,30.5,30.02,SW,224,4.0,4.0,86,0.01,OVC,,0.01,WeatherDisplay:10.37,2013-02-14 14:07:00,
2013-02-14 09:12:00,34.4,30.6,30.02,SW,224,7.0,7.0,86,0.01,OVC,,0.01,WeatherDisplay:10.37,2013-02-14 14:12:00,
2013-02-14 09:17:00,34.4,30.6,30.02,SW,224,9.2,9.2,86,0.01,OVC,,0.01,WeatherDisplay:10.37,2013-02-14 14:17:00,
2013-02-14 09:22:00,34.4,30.6,30.02,SW,230,8.1,8.1,86,0.01,OVC,,0.01,WeatherDisplay:10.37,2013-02-14 14:22:00,
2013-02-14 09:27:00,34.6,30.6,30.02,SW,229,4.0,4.0,85,0.01,OVC,,0.01,WeatherDisplay:10.37,2013-02-14 14:27:00,
2013-02-14 09:32:00,34.8,31.0,30.02,SW,234,9.2,9.2,86,0.01,OVC,,0.01,WeatherDisplay:10.37,2013-02-14 14:32:00,
2013-02-14 09:37:00,35.0,31.2,30.02,WSW,239,9.2,9.2,86,0.00,OVC,,0.01,WeatherDisplay:10.37,2013-02-14 14:37:00,
2013-02-14 09:42:00,35.1,31.0,30.02,SW,224,5.0,5.0,85,0.00,OVC,,0.01,WeatherDisplay:10.37,2013-02-14 14:42:00,
2013-02-14 09:47:00,35.3,31.2,30.02,SW,229,4.0,4.0,85,0.00,OVC,,0.01,WeatherDisplay:10.37,2013-02-14 14:47:00,
2013-02-14 09:52:00,35.5,31.4,30.02,WSW,245,5.0,5.0,85,0.00,OVC,,0.01,WeatherDisplay:10.37,2013-02-14 14:52:00,
2013-02-14 09:57:00,35.7,31.6,30.02,SW,218,9.2,9.2,85,0.00,OVC,,0.01,WeatherDisplay:10.37,2013-02-14 14:57:00,
2013-02-14 10:02:00,36.0,31.9,30.02,SW,233,4.0,4.0,85,0.00,OVC,,0.01,WeatherDisplay:10.37,2013-02-14 15:02:00,
2013-02-14 10:07:00,36.3,32.2,30.02,SW,229,7.0,7.0,85,0.00,OVC,,0.01,WeatherDisplay:10.37,2013-02-14 15:07:00,
2013-02-14 10:12:00,36.4,32.3,30.02,WSW,239,9.0,9.0,85,0.00,OVC,,0.01,WeatherDisplay:10.37,2013-02-14 15:12:00,
2013-02-14 10:17:00,36.8,32.7,30.02,WSW,242,6.0,6.0,85,0.00,OVC,,0.01,WeatherDisplay:10.37,2013-02-14 15:17:00,
2013-02-14 10:22:00,37.0,32.6,30.02,SW,231,11.5,11.5,84,0.00,OVC,,0.01,WeatherDisplay:10.37,2013-02-14 15:22:00,
2013-02-14 10:27:00,37.2,32.8,30.02,SW,233,9.2,9.2,84,0.00,OVC,,0.01,WeatherDisplay:10.37,2013-02-14 15:27:00,
2013-02-14 10:32:00,37.4,33.0,30.01,SW,230,8.1,8.1,84,0.00,OVC,,0.01,WeatherDisplay:10.37,2013-02-14 15:32:00,
2013-02-14 10:37:00,37.6,33.2,30.01,WSW,240,10.0,10.0,84,0.00,OVC,,0.01,WeatherDisplay:10.37,2013-02-14 15:37:00,
2013-02-14 10:42:00,37.9,33.5,30.02,SSW,192,7.0,7.0,84,0.00,OVC,,0.01,WeatherDisplay:10.37,2013-02-14 15:42:00,
2013-02-14 10:47:00,38.1,33.4,30.01,South,175,9.2,9.2,83,0.00,OVC,,0.01,WeatherDisplay:10.37,2013-02-14 15:47:00,
2013-02-14 10:53:00,38.4,33.7,30.02,SW,231,11.0,11.0,83,0.00,OVC,,0.01,WeatherDisplay:10.37,2013-02-14 15:53:00,
2013-02-14 10:58:00,38.7,34.0,30.02,SW,233,7.0,7.0,83,0.00,OVC,,0.01,WeatherDisplay:10.37,2013-02-14 15:58:00,
2013-02-14 11:03:00,39.0,34.0,30.02,SW,226,10.4,10.4,82,0.00,OVC,,0.01,WeatherDisplay:10.37,2013-02-14 16:03:00,
2013-02-14 11:08:00,39.3,34.3,30.01,SW,225,11.5,11.5,82,0.00,OVC,,0.01,WeatherDisplay:10.37,2013-02-14 16:08:00,
2013-02-14 11:13:00,39.7,34.3,30.01,SSW,194,11.5,11.5,81,0.00,OVC,,0.01,WeatherDisplay:10.37,2013-02-14 16:13:00,
2013-02-14 11:18:00,40.1,34.4,30.01,WSW,238,9.0,9.0,80,0.00,OVC,,0.01,WeatherDisplay:10.37,2013-02-14 16:18:00,
2013-02-14 11:23:00,40.6,34.9,30.01,SSW,212,8.1,8.1,80,0.00,OVC,,0.01,WeatherDisplay:10.37,2013-02-14 16:23:00,
2013-02-14 11:28:00,40.9,34.9,30.01,SW,222,7.0,7.0,79,0.00,OVC,,0.01,WeatherDisplay:10.37,2013-02-14 16:28:00,
2013-02-14 11:33:00,41.5,35.5,30.00,SW,232,7.0,7.0,79,0.00,OVC,,0.01,WeatherDisplay:10.37,2013-02-14 16:33:00,
2013-02-14 11:38:00,41.8,35.4,30.01,SSE,156,11.0,11.0,78,0.00,OVC,,0.01,WeatherDisplay:10.37,2013-02-14 16:38:00,
2013-02-14 11:43:00,42.3,35.6,30.00,WSW,244,8.0,8.0,77,0.00,OVC,,0.01,WeatherDisplay:10.37,2013-02-14 16:43:00,
2013-02-14 11:48:00,42.5,35.5,30.00,SW,222,6.9,6.9,76,0.00,OVC,,0.01,WeatherDisplay:10.37,2013-02-14 16:48:00,
2013-02-14 11:53:00,43.1,35.7,30.00,SW,229,10.4,10.4,75,0.00,OVC,,0.01,WeatherDisplay:10.37,2013-02-14 16:53:00,
2013-02-14 11:58:00,43.5,36.1,30.00,SSW,203,10.0,10.0,75,0.00,OVC,,0.01,WeatherDisplay:10.37,2013-02-14 16:58:00,
2013-02-14 12:03:00,43.9,36.1,29.99,SW,228,11.5,11.5,74,0.00,SCT,,0.01,WeatherDisplay:10.37,2013-02-14 17:03:00,
2013-02-14 12:08:00,44.2,35.7,29.99,SW,230,15.0,15.0,72,0.00,SCT,,0.01,WeatherDisplay:10.37,2013-02-14 17:08:00,
2013-02-14 12:13:00,44.6,36.5,29.99,SW,230,8.0,8.0,73,0.00,SCT,,0.01,WeatherDisplay:10.37,2013-02-14 17:13:00,
2013-02-14 12:18:00,45.0,36.2,29.98,SW,225,10.4,10.4,71,0.00,SCT,,0.01,WeatherDisplay:10.37,2013-02-14 17:18:00,
2013-02-14 12:23:00,45.6,36.4,29.98,SW,233,7.0,7.0,70,0.00,SCT,,0.01,WeatherDisplay:10.37,2013-02-14 17:23:00,
2013-02-14 12:28:00,45.8,36.2,29.98,West,263,9.2,9.2,69,0.00,SCT,,0.01,WeatherDisplay:10.37,2013-02-14 17:28:00,
2013-02-14 12:33:00,46.0,36.4,29.98,SW,228,10.4,10.4,69,0.00,SCT,,0.01,WeatherDisplay:10.37,2013-02-14 17:33:00,
2013-02-14 12:38:00,46.7,36.7,29.98,WSW,257,10.4,10.4,68,0.00,SCT,,0.01,WeatherDisplay:10.37,2013-02-14 17:38:00,
2013-02-14 12:43:00,46.7,36.3,29.98,WSW,248,11.0,11.0,67,0.00,SCT,,0.01,WeatherDisplay:10.37,2013-02-14 17:43:00,
2013-02-14 12:48:00,47.2,36.4,29.97,WSW,237,13.0,13.0,66,0.00,SCT,,0.01,WeatherDisplay:10.37,2013-02-14 17:48:00,
2013-02-14 12:53:00,47.6,36.0,29.97,WSW,244,15.0,15.0,64,0.00,SCT,,0.01,WeatherDisplay:10.37,2013-02-14 17:53:00,
2013-02-14 12:58:00,47.9,36.3,29.97,SW,228,16.1,16.1,64,0.00,SCT,,0.01,WeatherDisplay:10.37,2013-02-14 17:58:00,
2013-02-14 13:03:00,48.3,36.3,29.97,WSW,257,18.4,18.4,63,0.00,CLR,,0.01,WeatherDisplay:10.37,2013-02-14 18:03:00,
2013-02-14 13:08:00,48.5,36.5,29.97,WSW,242,18.4,18.4,63,0.00,CLR,,0.01,WeatherDisplay:10.37,2013-02-14 18:08:00,
2013-02-14 13:13:00,48.5,36.5,29.96,WSW,244,13.0,13.0,63,0.00,CLR,,0.01,WeatherDisplay:10.37,2013-02-14 18:13:00,
2013-02-14 13:18:00,49.2,36.3,29.96,WSW,247,10.4,10.4,61,0.00,CLR,,0.01,WeatherDisplay:10.37,2013-02-14 18:18:00,
2013-02-14 13:23:00,49.6,36.3,29.96,WSW,249,13.0,13.0,60,0.00,CLR,,0.01,WeatherDisplay:10.37,2013-02-14 18:23:00,
2013-02-14 13:28:00,49.8,36.5,29.95,WSW,240,13.0,13.0,60,0.00,CLR,,0.01,WeatherDisplay:10.37,2013-02-14 18:28:00,
2013-02-14 13:33:00,50.3,36.5,29.95,West,261,11.5,11.5,59,0.00,CLR,,0.01,WeatherDisplay:10.37,2013-02-14 18:33:00,
2013-02-14 13:38:00,50.6,36.4,29.95,WSW,249,11.0,11.0,58,0.00,CLR,,0.01,WeatherDisplay:10.37,2013-02-14 18:38:00,
2013-02-14 13:43:00,50.4,35.7,29.95,WSW,244,16.0,16.0,57,0.00,CLR,,0.01,WeatherDisplay:10.37,2013-02-14 18:43:00,
2013-02-14 13:48:00,50.6,36.4,29.95,WSW,241,11.5,11.5,58,0.00,CLR,,0.01,WeatherDisplay:10.37,2013-02-14 18:48:00,
2013-02-14 13:53:00,50.8,35.7,29.95,WSW,253,20.7,20.7,56,0.00,CLR,,0.01,WeatherDisplay:10.37,2013-02-14 18:53:00,
2013-02-14 13:58:00,50.8,36.1,29.95,WSW,251,15.0,15.0,57,0.00,CLR,,0.01,WeatherDisplay:10.37,2013-02-14 18:58:00,
2013-02-14 14:03:00,51.3,36.6,29.95,SW,222,13.8,13.8,57,0.00,FEW,,0.01,WeatherDisplay:10.37,2013-02-14 19:03:00,
2013-02-14 14:08:00,51.7,36.0,29.94,SW,233,16.0,16.0,55,0.00,FEW,,0.01,WeatherDisplay:10.37,2013-02-14 19:08:00,
2013-02-14 14:13:00,51.4,36.2,29.94,WSW,257,7.0,7.0,56,0.00,FEW,,0.01,WeatherDisplay:10.37,2013-02-14 19:13:00,
2013-02-14 14:18:00,51.4,35.8,29.94,SW,230,13.8,13.8,55,0.00,FEW,,0.01,WeatherDisplay:10.37,2013-02-14 19:18:00,
2013-02-14 14:23:00,51.9,35.8,29.94,WSW,256,13.0,13.0,54,0.00,FEW,,0.01,WeatherDisplay:10.37,2013-02-14 19:23:00,
2013-02-14 14:28:00,51.7,36.0,29.94,SW,224,16.1,16.1,55,0.00,FEW,,0.01,WeatherDisplay:10.37,2013-02-14 19:28:00,
2013-02-14 14:33:00,52.4,37.2,29.94,WSW,253,4.0,4.0,56,0.00,FEW,,0.01,WeatherDisplay:10.37,2013-02-14 19:33:00,
2013-02-14 14:38:00,52.8,36.1,29.94,SW,236,18.4,18.4,53,0.00,FEW,,0.01,WeatherDisplay:10.37,2013-02-14 19:38:00,
2013-02-14 14:43:00,52.5,35.8,29.94,WSW,240,19.6,19.6,53,0.00,FEW,,0.01,WeatherDisplay:10.37,2013-02-14 19:43:00,
2013-02-14 14:48:00,52.6,35.9,29.94,WSW,251,9.2,9.2,53,0.00,FEW,,0.01,WeatherDisplay:10.37,2013-02-14 19:48:00,
2013-02-14 14:53:00,53.0,36.3,29.93,WSW,251,13.0,13.0,53,0.00,FEW,,0.01,WeatherDisplay:10.37,2013-02-14 19:53:00,
2013-02-14 14:58:00,53.0,35.8,29.93,West,263,12.0,12.0,52,0.00,FEW,,0.01,WeatherDisplay:10.37,2013-02-14 19:58:00,
2013-02-14 15:03:00,53.1,35.4,29.93,West,270,12.0,12.0,51,0.00,CLR,,0.01,WeatherDisplay:10.37,2013-02-14 20:03:00,
2013-02-14 15:08:00,53.0,35.3,29.93,WSW,242,19.6,19.6,51,0.00,CLR,,0.01,WeatherDisplay:10.37,2013-02-14 20:08:00,
2013-02-14 15:13:00,53.2,36.0,29.93,West,264,15.0,15.0,52,0.00,CLR,,0.01,WeatherDisplay:10.37,2013-02-14 20:13:00,
2013-02-14 15:18:00,53.5,35.8,29.93,WSW,243,11.0,11.0,51,0.00,CLR,,0.01,WeatherDisplay:10.37,2013-02-14 20:18:00,
2013-02-14 15:23:00,54.0,35.8,29.93,WSW,243,13.0,13.0,50,0.00,CLR,,0.01,WeatherDisplay:10.37,2013-02-14 20:23:00,
2013-02-14 15:28:00,53.9,35.7,29.93,West,272,11.5,11.5,50,0.00,CLR,,0.01,WeatherDisplay:10.37,2013-02-14 20:28:00,
2013-02-14 15:33:00,54.0,35.3,29.93,WSW,244,13.8,13.8,49,0.00,CLR,,0.01,WeatherDisplay:10.37,2013-02-14 20:33:00,
2013-02-14 15:38:00,53.7,35.0,29.93,WSW,241,12.0,12.0,49,0.00,CLR,,0.01,WeatherDisplay:10.37,2013-02-14 20:38:00,
2013-02-14 15:43:00,53.9,34.6,29.94,West,265,10.4,10.4,48,0.00,CLR,,0.01,WeatherDisplay:10.37,2013-02-14 20:43:00,
2013-02-14 15:48:00,53.9,34.6,29.94,WSW,257,14.0,14.0,48,0.00,CLR,,0.01,WeatherDisplay:10.37,2013-02-14 20:48:00,
2013-02-14 15:53:00,53.9,34.6,29.94,WSW,237,14.0,14.0,48,0.00,CLR,,0.01,WeatherDisplay:10.37,2013-02-14 20:53:00,
2013-02-14 15:58:00,54.1,34.3,29.94,WSW,258,14.0,14.0,47,0.00,CLR,,0.01,WeatherDisplay:10.37,2013-02-14 20:58:00,
2013-02-14 16:03:00,54.2,34.9,29.94,WSW,248,10.4,10.4,48,0.00,FEW,,0.01,WeatherDisplay:10.37,2013-02-14 21:03:00,
2013-02-14 16:08:00,54.3,35.0,29.94,NNW,334,10.4,10.4,48,0.00,FEW,,0.01,WeatherDisplay:10.37,2013-02-14 21:08:00,
2013-02-14 16:13:00,54.2,34.4,29.94,WSW,243,12.0,12.0,47,0.00,FEW,,0.01,WeatherDisplay:10.37,2013-02-14 21:13:00,
2013-02-14 16:18:00,54.1,34.8,29.94,WSW,245,11.5,11.5,48,0.00,FEW,,0.01,WeatherDisplay:10.37,2013-02-14 21:18:00,
2013-02-14 16:23:00,54.7,35.4,29.94,SW,236,7.0,7.0,48,0.00,FEW,,0.01,WeatherDisplay:10.37,2013-02-14 21:23:00,
2013-02-14 16:28:00,54.6,35.3,29.94,SW,234,9.2,9.2,48,0.00,FEW,,0.01,WeatherDisplay:10.37,2013-02-14 21:28:00,
2013-02-14 16:33:00,54.4,35.1,29.94,West,274,12.0,12.0,48,0.00,FEW,,0.01,WeatherDisplay:10.37,2013-02-14 21:33:00,
2013-02-14 16:38:00,54.4,35.1,29.94,WSW,252,9.2,9.2,48,0.00,FEW,,0.01,WeatherDisplay:10.37,2013-02-14 21:38:00,
2013-02-14 16:43:00,53.9,34.6,29.94,West,267,15.0,15.0,48,0.00,FEW,,0.01,WeatherDisplay:10.37,2013-02-14 21:43:00,
2013-02-14 16:48:00,53.6,34.4,29.94,WSW,241,20.0,20.0,48,0.00,FEW,,0.01,WeatherDisplay:10.37,2013-02-14 21:48:00,
2013-02-14 16:53:00,53.7,35.0,29.94,WSW,249,9.2,9.2,49,0.00,FEW,,0.01,WeatherDisplay:10.37,2013-02-14 21:53:00,
2013-02-14 16:58:00,53.8,35.1,29.95,NW,314,10.0,10.0,49,0.00,FEW,,0.01,WeatherDisplay:10.37,2013-02-14 21:58:00,
2013-02-14 17:03:00,53.9,35.2,29.95,West,263,13.0,13.0,49,0.00,CLR,,0.01,WeatherDisplay:10.37,2013-02-14 22:03:00,
2013-02-14 17:08:00,53.5,35.3,29.95,West,265,11.0,11.0,50,0.00,CLR,,0.01,WeatherDisplay:10.37,2013-02-14 22:08:00,
2013-02-14 17:13:00,53.5,34.8,29.95,WSW,256,9.2,9.2,49,0.00,CLR,,0.01,WeatherDisplay:10.37,2013-02-14 22:13:00,
2013-02-14 17:18:00,53.3,35.1,29.95,West,259,8.1,8.1,50,0.00,CLR,,0.01,WeatherDisplay:10.37,2013-02-14 22:18:00,
2013-02-14 17:23:00,53.5,35.3,29.95,WSW,245,8.0,8.0,50,0.00,CLR,,0.01,WeatherDisplay:10.37,2013-02-14 22:23:00,
2013-02-14 17:28:00,53.4,35.2,29.95,SW,234,13.0,13.0,50,0.00,CLR,,0.01,WeatherDisplay:10.37,2013-02-14 22:28:00,
2013-02-14 17:33:00,53.4,35.2,29.95,WSW,252,11.5,11.5,50,0.00,CLR,,0.01,WeatherDisplay:10.37,2013-02-14 22:33:00,
2013-02-14 17:38:00,53.6,34.9,29.96,SW,226,15.0,15.0,49,0.00,CLR,,0.01,WeatherDisplay:10.37,2013-02-14 22:38:00,
2013-02-14 17:43:00,53.4,34.2,29.96,West,268,10.4,10.4,48,0.00,CLR,,0.01,WeatherDisplay:10.37,2013-02-14 22:43:00,
2013-02-14 17:48:00,53.2,34.5,29.96,West,269,8.1,8.1,49,0.00,CLR,,0.01,WeatherDisplay:10.37,2013-02-14 22:48:00,
2013-02-14 17:53:00,53.1,34.4,29.96,SW,233,11.0,11.0,49,0.00,CLR,,0.01,WeatherDisplay:10.37,2013-02-14 22:53:00,
2013-02-14 17:58:00,52.9,34.2,29.97,West,261,11.5,11.5,49,0.00,CLR,,0.01,WeatherDisplay:10.37,2013-02-14 22:58:00,
2013-02-14 18:03:00,52.6,34.0,29.97,West,264,11.5,11.5,49,0.00,CLR,,0.01,WeatherDisplay:10.37,2013-02-14 23:03:00,
2013-02-14 18:08:00,52.2,34.1,29.97,WSW,255,6.0,6.0,50,0.00,CLR,,0.01,WeatherDisplay:10.37,2013-02-14 23:08:00,
2013-02-14 18:13:00,51.8,33.7,29.97,WSW,247,8.0,8.0,50,0.00,CLR,,0.01,WeatherDisplay:10.37,2013-02-14 23:13:00,
2013-02-14 18:18:00,51.6,34.0,29.97,West,261,4.6,4.6,51,0.00,CLR,,0.01,WeatherDisplay:10.37,2013-02-14 23:18:00,
2013-02-14 18:23:00,51.3,33.8,29.97,WSW,258,5.0,5.0,51,0.00,CLR,,0.01,WeatherDisplay:10.37,2013-02-14 23:23:00,
2013-02-14 18:28:00,51.0,34.0,29.98,WSW,258,3.5,3.5,52,0.00,CLR,,0.01,WeatherDisplay:10.37,2013-02-14 23:28:00,
2013-02-14 18:33:00,50.6,33.6,29.98,WSW,257,4.0,4.0,52,0.00,CLR,,0.01,WeatherDisplay:10.37,2013-02-14 23:33:00,
2013-02-14 18:38:00,50.4,33.9,29.98,WSW,258,4.6,4.6,53,0.00,CLR,,0.01,WeatherDisplay:10.37,2013-02-14 23:38:00,
2013-02-14 18:43:00,50.3,33.8,29.98,WSW,256,4.6,4.6,53,0.00,CLR,,0.01,WeatherDisplay:10.37,2013-02-14 23:43:00,
2013-02-14 18:48:00,50.1,33.6,29.99,WSW,249,3.5,3.5,53,0.00,CLR,,0.01,WeatherDisplay:10.37,2013-02-14 23:48:00,
2013-02-14 18:53:00,49.9,33.9,29.99,WSW,249,3.5,3.5,54,0.00,CLR,,0.01,WeatherDisplay:10.37,2013-02-14 23:53:00,
2013-02-14 18:58:00,49.7,33.7,29.99,WSW,249,3.5,3.5,54,0.00,CLR,,0.01,WeatherDisplay:10.37,2013-02-14 23:58:00,
2013-02-14 19:03:00,49.5,34.0,29.99,WSW,249,3.5,3.5,55,0.00,SCT,,0.01,WeatherDisplay:10.37,2013-02-15 00:03:00,
2013-02-14 19:08:00,49.3,33.8,29.99,WSW,248,2.3,2.3,55,0.00,SCT,,0.01,WeatherDisplay:10.37,2013-02-15 00:08:00,
2013-02-14 19:13:00,49.2,33.7,29.99,WSW,248,2.3,2.3,55,0.00,SCT,,0.01,WeatherDisplay:10.37,2013-02-15 00:13:00,
2013-02-14 19:18:00,49.1,33.6,29.99,WSW,249,2.0,2.0,55,0.00,SCT,,0.01,WeatherDisplay:10.37,2013-02-15 00:18:00,
2013-02-14 19:23:00,48.9,33.9,29.99,WSW,249,4.0,4.0,56,0.00,SCT,,0.01,WeatherDisplay:10.37,2013-02-15 00:23:00,
2013-02-14 19:28:00,48.8,33.8,29.99,WSW,248,3.5,3.5,56,0.00,SCT,,0.01,WeatherDisplay:10.37,2013-02-15 00:28:00,
2013-02-14 19:33:00,48.6,33.6,30.00,WSW,248,3.5,3.5,56,0.00,SCT,,0.01,WeatherDisplay:10.37,2013-02-15 00:33:00,
2013-02-14 19:38:00,48.3,33.8,30.00,WSW,249,1.1,1.1,57,0.00,SCT,,0.01,WeatherDisplay:10.37,2013-02-15 00:38:00,
2013-02-14 19:43:00,48.2,33.7,30.00,WSW,248,3.5,3.5,57,0.00,SCT,,0.01,WeatherDisplay:10.37,2013-02-15 00:43:00,
2013-02-14 19:48:00,47.9,33.8,30.00,WSW,249,0.0,0.0,58,0.00,SCT,,0.01,WeatherDisplay:10.37,2013-02-15 00:48:00,
2013-02-14 19:53:00,47.7,33.6,30.00,WSW,248,0.0,0.0,58,0.00,SCT,,0.01,WeatherDisplay:10.37,2013-02-15 00:53:00,
2013-02-14 19:58:00,47.4,33.8,30.00,WSW,249,0.0,0.0,59,0.00,SCT,,0.01,WeatherDisplay:10.37,2013-02-15 00:58:00,
2013-02-14 20:03:00,47.2,33.6,30.00,WSW,249,1.1,0.0,59,0.00,SCT,,0.01,WeatherDisplay:10.37,2013-02-15 01:03:00,
2013-02-14 20:08:00,46.8,33.6,30.01,WSW,248,1.1,1.1,60,0.00,SCT,,0.01,WeatherDisplay:10.37,2013-02-15 01:08:00,
2013-02-14 20:13:00,46.7,33.5,30.00,WSW,248,0.0,0.0,60,0.00,SCT,,0.01,WeatherDisplay:10.37,2013-02-15 01:13:00,
2013-02-14 20:18:00,46.5,33.4,30.00,WSW,249,0.0,0.0,60,0.00,SCT,,0.01,WeatherDisplay:10.37,2013-02-15 01:18:00,
2013-02-14 20:23:00,46.3,33.6,30.00,WSW,249,2.0,2.0,61,0.00,SCT,,0.01,WeatherDisplay:10.37,2013-02-15 01:23:00,
2013-02-14 20:28:00,46.1,33.4,30.00,WSW,248,2.0,2.0,61,0.00,SCT,,0.01,WeatherDisplay:10.37,2013-02-15 01:28:00,
2013-02-14 20:33:00,45.9,33.6,30.01,WSW,249,2.3,2.3,62,0.00,SCT,,0.01,WeatherDisplay:10.37,2013-02-15 01:33:00,
2013-02-14 20:38:00,45.7,33.0,30.01,WSW,249,3.5,3.5,61,0.00,SCT,,0.01,WeatherDisplay:10.37,2013-02-15 01:38:00,
2013-02-14 20:43:00,45.6,33.3,30.01,WSW,249,3.0,3.0,62,0.00,SCT,,0.01,WeatherDisplay:10.37,2013-02-15 01:43:00,
2013-02-14 20:48:00,45.5,33.2,30.01,WSW,248,1.0,0.0,62,0.00,SCT,,0.01,WeatherDisplay:10.37,2013-02-15 01:48:00,
2013-02-14 20:53:00,45.4,33.1,30.01,WSW,248,1.1,1.1,62,0.00,SCT,,0.01,WeatherDisplay:10.37,2013-02-15 01:53:00,
2013-02-14 20:58:00,45.2,32.9,30.01,WSW,248,1.1,1.1,62,0.00,SCT,,0.01,WeatherDisplay:10.37,2013-02-15 01:58:00,
2013-02-14 21:03:00,45.1,32.8,30.01,WSW,249,0.0,0.0,62,0.00,CLR,,0.01,WeatherDisplay:10.37,2013-02-15 02:03:00,
2013-02-14 21:08:00,45.0,32.8,30.01,WSW,248,0.0,0.0,62,0.00,CLR,,0.01,WeatherDisplay:10.37,2013-02-15 02:08:00,
2013-02-14 21:13:00,44.8,33.0,30.01,WSW,248,3.5,3.5,63,0.00,CLR,,0.01,WeatherDisplay:10.37,2013-02-15 02:13:00,
2013-02-14 21:18:00,44.9,33.1,30.01,WSW,249,2.3,2.3,63,0.00,CLR,,0.01,WeatherDisplay:10.37,2013-02-15 02:18:00,
2013-02-14 21:23:00,44.9,33.1,30.01,WSW,249,2.3,0.0,63,0.00,CLR,,0.01,WeatherDisplay:10.37,2013-02-15 02:23:00,
2013-02-14 21:28:00,44.7,32.9,30.02,WSW,248,2.3,0.0,63,0.00,CLR,,0.01,WeatherDisplay:10.37,2013-02-15 02:28:00,
2013-02-14 21:33:00,44.6,32.8,30.01,WSW,249,1.1,1.1,63,0.00,CLR,,0.01,WeatherDisplay:10.37,2013-02-15 02:33:00,
2013-02-14 21:38:00,44.5,32.7,30.01,WSW,248,2.3,2.3,63,0.00,CLR,,0.01,WeatherDisplay:10.37,2013-02-15 02:38:00,
2013-02-14 21:43:00,44.5,32.7,30.02,WSW,249,1.0,1.0,63,0.00,CLR,,0.01,WeatherDisplay:10.37,2013-02-15 02:43:00,
2013-02-14 21:48:00,44.6,32.4,30.02,WSW,248,1.0,1.0,62,0.00,CLR,,0.01,WeatherDisplay:10.37,2013-02-15 02:48:00,
2013-02-14 21:53:00,44.5,32.3,30.02,WSW,249,0.0,0.0,62,0.00,CLR,,0.01,WeatherDisplay:10.37,2013-02-15 02:53:00,
2013-02-14 21:58:00,44.3,32.1,30.02,WSW,249,2.0,2.0,62,0.00,CLR,,0.01,WeatherDisplay:10.37,2013-02-15 02:58:00,
2013-02-14 22:03:00,44.2,32.4,30.02,WSW,249,2.0,2.0,63,0.00,CLR,,0.01,WeatherDisplay:10.37,2013-02-15 03:03:00,
2013-02-14 22:08:00,44.1,32.3,30.02,WSW,248,0.0,0.0,63,0.00,CLR,,0.01,WeatherDisplay:10.37,2013-02-15 03:08:00,
2013-02-14 22:13:00,43.8,32.0,30.02,WSW,249,0.0,0.0,63,0.00,CLR,,0.01,WeatherDisplay:10.37,2013-02-15 03:13:00,
2013-02-14 22:18:00,43.6,32.2,30.02,WSW,249,0.0,0.0,64,0.00,CLR,,0.01,WeatherDisplay:10.37,2013-02-15 03:18:00,
2013-02-14 22:23:00,43.4,32.0,30.02,WSW,249,2.0,2.0,64,0.00,CLR,,0.01,WeatherDisplay:10.37,2013-02-15 03:23:00,
2013-02-14 22:28:00,43.2,32.2,30.03,WSW,249,2.0,2.0,65,0.00,CLR,,0.01,WeatherDisplay:10.37,2013-02-15 03:28:00,
2013-02-14 22:33:00,43.2,32.2,30.02,WSW,249,1.0,0.0,65,0.00,CLR,,0.01,WeatherDisplay:10.37,2013-02-15 03:33:00,
2013-02-14 22:38:00,43.1,32.1,30.02,WSW,248,2.3,2.3,65,0.00,CLR,,0.01,WeatherDisplay:10.37,2013-02-15 03:38:00,
2013-02-14 22:43:00,42.9,31.9,30.02,WSW,248,1.1,0.0,65,0.00,CLR,,0.01,WeatherDisplay:10.37,2013-02-15 03:43:00,
2013-02-14 22:48:00,42.7,32.1,30.02,WSW,249,2.0,2.0,66,0.00,CLR,,0.01,WeatherDisplay:10.37,2013-02-15 03:48:00,
2013-02-14 22:53:00,42.6,31.7,30.02,WSW,249,0.0,0.0,65,0.00,CLR,,0.01,WeatherDisplay:10.37,2013-02-15 03:53:00,
2013-02-14 22:58:00,42.5,31.9,30.02,WSW,249,0.0,0.0,66,0.00,CLR,,0.01,WeatherDisplay:10.37,2013-02-15 03:58:00,
2013-02-14 23:03:00,42.2,31.6,30.02,WSW,248,0.0,0.0,66,0.00,CLR,,0.01,WeatherDisplay:10.37,2013-02-15 04:03:00,
2013-02-14 23:08:00,42.0,31.5,30.02,WSW,249,1.1,0.0,66,0.00,CLR,,0.01,WeatherDisplay:10.37,2013-02-15 04:08:00,
2013-02-14 23:13:00,41.9,31.4,30.02,WSW,249,0.0,0.0,66,0.00,CLR,,0.01,WeatherDisplay:10.37,2013-02-15 04:13:00,
2013-02-14 23:18:00,41.8,31.6,30.02,WSW,249,0.0,0.0,67,0.00,CLR,,0.01,WeatherDisplay:10.37,2013-02-15 04:18:00,
2013-02-14 23:23:00,41.5,31.4,30.02,WSW,248,0.0,0.0,67,0.00,CLR,,0.01,WeatherDisplay:10.37,2013-02-15 04:23:00,
2013-02-14 23:28:00,41.4,31.3,30.02,WSW,249,1.1,1.1,67,0.00,CLR,,0.01,WeatherDisplay:10.37,2013-02-15 04:28:00,
2013-02-14 23:33:00,41.5,31.4,30.02,WSW,249,0.0,0.0,67,0.00,CLR,,0.01,WeatherDisplay:10.37,2013-02-15 04:33:00,
2013-02-14 23:38:00,41.4,31.3,30.02,WSW,248,0.0,0.0,67,0.00,CLR,,0.01,WeatherDisplay:10.37,2013-02-15 04:38:00,
2013-02-14 23:43:00,41.3,31.5,30.02,WSW,248,2.3,2.3,68,0.00,CLR,,0.01,WeatherDisplay:10.37,2013-02-15 04:43:00,
2013-02-14 23:48:00,41.2,31.4,30.02,WSW,249,0.0,0.0,68,0.00,CLR,,0.01,WeatherDisplay:10.37,2013-02-15 04:48:00,
2013-02-14 23:53:00,41.1,31.3,30.02,WSW,249,1.1,0.0,68,0.00,CLR,,0.01,WeatherDisplay:10.37,2013-02-15 04:53:00,
2013-02-14 23:58:00,41.1,31.3,30.03,WSW,248,0.0,0.0,68,0.00,CLR,,0.01,WeatherDisplay:10.37,2013-02-15 04:58:00,